This is the latest recevied weather packets stored in our database for station/object K4GDX. If no packets are shown the sender has not sent any weather packets the latest 10 day(s).
| Time | Temp. | Humidity | Pressure | Rain* | Wind** | Luminosity | Snow |
|---|---|---|---|---|---|---|---|
| 1777559923 | 26.11° C | 76% | 1010.4 hPa | 0 mm | - | 357 W/m² | - |
| 1777559628 | 25.56° C | 77% | 1010.5 hPa | 0 mm | - | 397 W/m² | - |
| 1777559322 | 25.56° C | 77% | 1010.4 hPa | 0 mm | - | 392 W/m² | - |
| 1777559022 | 25.56° C | 78% | 1010.3 hPa | 0 mm | - | 258 W/m² | - |
| 1777558721 | 25.56° C | 78% | 1010.2 hPa | 0 mm | - | 381 W/m² | - |
| 1777558420 | 25.56° C | 78% | 1010.3 hPa | 0 mm | - | 369 W/m² | - |
| 1777558123 | 25.56° C | 78% | 1010.4 hPa | 0 mm | - | 380 W/m² | - |
| 1777557820 | 25.56° C | 79% | 1010.2 hPa | 0 mm | - | 353 W/m² | - |
| 1777557521 | 25° C | 80% | 1010.2 hPa | 0 mm | - | 357 W/m² | - |
| 1777557219 | 25° C | 80% | 1010.3 hPa | 0 mm | - | 362 W/m² | - |
| 1777556919 | 24.44° C | 81% | 1010 hPa | 0 mm | - | 408 W/m² | - |
| 1777556617 | 24.44° C | 81% | 1010.1 hPa | 0 mm | - | 385 W/m² | - |
| 1777556314 | 24.44° C | 81% | 1009.9 hPa | 0 mm | - | 308 W/m² | - |
| 1777556015 | 24.44° C | 82% | 1010 hPa | 0 mm | - | 267 W/m² | - |
| 1777555718 | 23.89° C | 82% | 1009.9 hPa | 0 mm | - | 253 W/m² | - |
| 1777555414 | 23.89° C | 83% | 1010 hPa | 0 mm | - | 234 W/m² | - |
| 1777555114 | 23.89° C | 83% | 1009.9 hPa | 0 mm | - | 200 W/m² | - |
| 1777554815 | 23.89° C | 83% | 1010.1 hPa | 0 mm | - | 188 W/m² | - |
| 1777554511 | 23.89° C | 83% | 1010.4 hPa | 0 mm | - | 169 W/m² | - |
| 1777554211 | 23.33° C | 83% | 1010.7 hPa | 0 mm | - | 109 W/m² | - |
| 1777553911 | 23.33° C | 83% | 1010.7 hPa | 0 mm | - | 102 W/m² | - |
| 1777553611 | 23.33° C | 83% | 1010.6 hPa | 0 mm | - | 137 W/m² | - |
| 1777553303 | 23.33° C | 84% | 1010.5 hPa | 0 mm | - | 155 W/m² | - |
| 1777553002 | 23.33° C | 84% | 1010.5 hPa | 0 mm | - | 162 W/m² | - |
| 1777552702 | 23.33° C | 84% | 1010.3 hPa | 0 mm | - | 118 W/m² | - |
* Rain latest hour (hover to see other rain measurements)
** Current wind speed in m/s (hover to see current wind gust speed)